Location: STAR School
(35.3054°N, 111.2976°W)
Time: 19:43:42
(UTC-07:00)

A-11 Canister half - All Passes

Search period start: 22 May 2019 00:00
Search period end: 01 June 2019 00:00
Orbit: 1525 x 1684 km, 47.3° (Epoch: 22 May)

Date Brightness Start Highest point End Pass type
(mag) Time Alt. Az. Time Alt. Az. Time Alt. Az.
22 May - 10:41:18 10° S 10:48:35 27° SE 10:55:57 10° ENE daylight
22 May - 12:43:20 10° SW 12:52:40 89° SE 13:02:18 10° NE daylight
22 May - 14:49:38 10° W 14:58:35 45° NNW 15:07:51 10° ENE daylight
22 May - 16:56:32 10° WNW 17:05:37 44° NNE 17:14:59 10° E daylight
22 May - 19:01:57 10° NW 19:11:48 83° NE 19:21:56 10° ESE daylight
22 May - 21:07:50 10° WNW 21:16:18 33° SW 21:24:56 10° S visible
23 May - 10:20:00 10° S 10:27:02 25° SE 10:34:08 10° ENE daylight
23 May - 12:21:43 10° SW 12:31:02 86° SE 12:40:38 10° NE daylight
23 May - 14:27:55 10° W 14:36:53 46° NNW 14:46:08 10° ENE daylight
23 May - 16:34:52 10° WNW 16:43:54 43° N 16:53:12 10° E daylight
23 May - 18:40:20 10° NW 18:50:09 80° NNE 19:00:15 10° ESE daylight
23 May - 20:46:05 10° WNW 20:54:42 35° SW 21:03:30 10° S visible
24 May - 09:58:43 10° S 10:05:29 23° SE 10:12:18 10° ENE daylight
24 May - 12:00:08 10° SW 12:09:26 83° SE 12:18:58 10° ENE daylight
24 May - 14:06:13 10° W 14:15:11 47° NNW 14:24:26 10° ENE daylight
24 May - 16:13:11 10° WNW 16:22:10 43° N 16:31:26 10° E daylight
24 May - 18:18:42 10° NW 18:28:29 77° NNE 18:38:32 10° ESE daylight
24 May - 20:24:22 10° WNW 20:33:06 37° SW 20:42:03 10° SSE visible
25 May - 09:37:28 10° S 09:43:57 21° SE 09:50:26 10° E daylight
25 May - 11:38:33 10° SW 11:47:49 79° SE 11:57:19 10° ENE daylight
25 May - 13:44:30 10° W 13:53:28 48° NNW 14:02:44 10° NE daylight
25 May - 15:51:31 10° WNW 16:00:26 42° N 16:09:39 10° ENE daylight
25 May - 17:57:04 10° NW 18:06:48 75° NNE 18:16:50 10° ESE daylight
25 May - 20:02:38 10° WNW 20:11:30 39° SW 20:20:34 10° SSE visible
26 May - 09:16:16 10° SSE 09:22:24 20° SE 09:28:33 10° E daylight
26 May - 11:16:58 10° SW 11:26:12 76° SE 11:35:40 10° ENE daylight
26 May - 13:22:47 10° W 13:31:47 49° NNW 13:41:03 10° NE daylight
26 May - 15:29:50 10° WNW 15:38:43 41° N 15:47:52 10° ENE daylight
26 May - 17:35:27 10° NW 17:45:08 72° NNE 17:55:08 10° ESE daylight
26 May - 19:40:56 10° WNW 19:49:53 42° SW 19:59:05 10° SSE visible
27 May - 08:55:05 10° SSE 09:00:51 18° SE 09:06:38 10° E daylight
27 May - 10:55:24 10° SW 11:04:36 73° SE 11:14:00 10° ENE daylight
27 May - 13:01:05 10° W 13:10:05 50° NNW 13:19:21 10° NE daylight
27 May - 15:08:09 10° WNW 15:16:59 41° N 15:26:06 10° ENE daylight
27 May - 17:13:49 10° NW 17:23:28 69° NNE 17:33:24 10° ESE daylight
27 May - 19:19:14 10° WNW 19:28:17 44° SW 19:37:35 10° SSE daylight
28 May - 08:33:58 10° SSE 08:39:18 17° ESE 08:44:40 10° E daylight
28 May - 10:33:51 10° SW 10:43:00 69° SE 10:52:21 10° ENE daylight
28 May - 12:39:22 10° W 12:48:24 51° NNW 12:57:41 10° NE daylight
28 May - 14:46:28 10° WNW 14:55:16 41° N 15:04:19 10° ENE daylight
28 May - 16:52:12 10° NW 17:01:47 67° NNE 17:11:41 10° ESE daylight
28 May - 18:57:33 10° WNW 19:06:41 46° SW 19:16:04 10° SSE daylight
29 May - 08:12:54 10° SSE 08:17:46 15° ESE 08:22:38 10° E daylight
29 May - 10:12:17 10° SW 10:21:25 66° SE 10:30:41 10° ENE daylight
29 May - 12:17:40 10° W 12:26:43 53° NNW 12:36:00 10° NE daylight
29 May - 14:24:47 10° WNW 14:33:32 40° N 14:42:33 10° ENE daylight
29 May - 16:30:34 10° NW 16:40:07 65° NNE 16:49:57 10° ESE daylight
29 May - 18:35:53 10° WNW 18:45:04 49° SW 18:54:32 10° SSE daylight
30 May - 07:51:55 10° SSE 07:56:14 14° ESE 08:00:32 10° E daylight
30 May - 09:50:44 10° SW 09:59:49 63° SE 10:09:01 10° ENE daylight
30 May - 11:55:58 10° W 12:05:02 54° NNW 12:14:19 10° NE daylight
30 May - 14:03:05 10° WNW 14:11:48 40° N 14:20:47 10° ENE daylight
30 May - 16:08:56 10° NW 16:18:26 63° NNE 16:28:13 10° ESE daylight
30 May - 18:14:12 10° WNW 18:23:28 52° SW 18:33:00 10° SSE daylight
30 May - 20:25:34 10° WSW 20:27:03 10° WSW 20:28:33 10° SW visible
31 May - 07:31:04 10° SE 07:34:41 13° ESE 07:38:19 10° E daylight
31 May - 09:29:12 10° SSW 09:38:14 59° SE 09:47:21 10° ENE daylight
31 May - 11:34:16 10° W 11:43:21 56° NNW 11:52:40 10° NE daylight
31 May - 13:41:24 10° WNW 13:50:05 40° N 13:59:01 10° ENE daylight
31 May - 15:47:19 10° NW 15:56:45 61° NNE 16:06:28 10° ESE daylight
31 May - 17:52:32 10° WNW 18:01:50 54° SW 18:11:26 10° SSE daylight
31 May - 20:02:35 10° WSW 20:05:30 12° WSW 20:08:27 10° SW visible
